This demonstration page uses our WeatherBlox Daily Observations layout. Learn more.

40.92945, -100.16068

Hourly Observations for July 2, 2015

Temp ( °F °C ) Dew Point ( °F °C ) Humidity (%) Winds ( mph kmh ) Pressure ( in mb ) Visibility ( mi km ) Precip ( " mm )
1:55 pm 13:55 Sunny 83 28.5 62 16.4 48 48 NNW 10 17 29.85 1011 10 16.0934 N/A
2:15 pm 14:15 Sunny 83 28.6 62 16.7 49 49 NW 12 19 29.85 1011 10 16.0934 N/A
2:35 pm 14:35 Sunny 84 28.9 62 16.7 48 48 NNW 9 15 29.83 1010 10 16.0934 N/A
2:55 pm 14:55 Sunny 85 29.2 62 16.5 46 46 NNW 10 17 29.83 1010 10 16.0934 N/A
3:15 pm 15:15 Partly Cloudy 82 27.9 61 16.1 49 49 N 23 37 29.85 1011 10 16.0934 N/A
3:35 pm 15:35 Mostly Cloudy with Light Rain 72 22.2 67 19.4 84 84 N 6 9 29.91 1013 2 3.21868 0.1 2.54
3:55 pm 15:55 Partly Cloudy 78 25.4 68 19.8 71 71 N 10 17 29.88 1012 10 16.0934 0.1 2.54
4:15 pm 16:15 Sunny 82 27.5 67 19.7 63 63 N 10 17 29.83 1010 10 16.0934 N/A
4:35 pm 16:35 Sunny 83 28.2 66 19 57 57 NNW 12 19 29.83 1010 10 16.0934 N/A
4:55 pm 16:55 Sunny 84 28.7 64 17.8 52 52 NNW 17 28 29.83 1010 10 16.0934 N/A
5:15 pm 17:15 Partly Cloudy 82 27.9 63 17.1 52 52 NNW 10 17 29.83 1010 10 16.0934 N/A
5:35 pm 17:35 Sunny 84 29 58 14.7 42 42 N 16 26 29.83 1010 10 16.0934 N/A
5:55 pm 17:55 Sunny 84 28.8 59 14.8 42 42 N 16 26 29.83 1010 10 16.0934 N/A
6:15 pm 18:15 Sunny 83 28.6 58 14.7 43 43 NNW 14 22 29.83 1010 10 16.0934 N/A
6:35 pm 18:35 Sunny 83 28.4 58 14.6 43 43 N 13 20 29.83 1010 10 16.0934 N/A
6:55 pm 18:55 Sunny 82 28 56 13.5 41 41 N 15 24 29.83 1010 10 16.0934 0 0
7:15 pm 19:15 Sunny 82 27.6 57 14 43 43 N 13 20 29.83 1010 10 16.0934 N/A
7:35 pm 19:35 Sunny 81 27 59 14.8 47 47 N 9 15 29.83 1010 10 16.0934 N/A
7:55 pm 19:55 Sunny 80 26.4 58 14.5 48 48 N 10 17 29.85 1011 10 16.0934 N/A
8:15 pm 20:15 Sunny 77 25.2 60 15.5 55 55 N 8 13 29.85 1011 10 16.0934 N/A
8:35 pm 20:35 Sunny 75 24 61 16 61 61 NNW 7 11 29.85 1011 10 16.0934 N/A
8:55 pm 20:55 Sunny 73 22.9 61 16.3 66 66 N 6 9 29.91 1013 10 16.0934 N/A
9:15 pm 21:15 Partly Cloudy 71 21.5 62 16.8 75 75 N 6 9 29.91 1013 7 11.26538 N/A
9:35 pm 21:35 Partly Cloudy 69 20.4 63 17.1 81 81 N 7 11 29.91 1013 7 11.26538 N/A
9:55 pm 21:55 Clear 68 20.2 63 17.1 82 82 NNE 6 9 29.91 1013 7 11.26538 N/A
10:15 pm 22:15 Clear 68 20.1 63 17 82 82 NNE 3 6 29.91 1013 7 11.26538 N/A
10:35 pm 22:35 Clear 68 20.2 63 17.1 82 82 NE 6 9 29.97 1015 10 16.0934 N/A
10:55 pm 22:55 Clear 67 19.6 63 17 85 85 NE 5 7 29.97 1015 10 16.0934 N/A
11:15 pm 23:15 Clear 67 19.3 63 17 87 87 ENE 5 7 29.97 1015 10 16.0934 N/A
11:35 pm 23:35 Clear 66 19 63 17 88 88 ENE 3 6 29.97 1015 10 16.0934 N/A
11:55 pm 23:55 Clear 66 18.7 63 17 90 90 Calm 29.97 1015 10 16.0934 N/A

Powered by AerisWeather